Wind_Speed
8 9 9 10 11 12 12 12 13 14 14 14 14 15 15 15 15 16 15 15 16 16 16 15 15 15 15 15 15 14 13 13 14 14 14 14 14 14 14 14 14 14 14 14
9 9 9 10 10 11 11 12 13 14 14 14 15 15 15 15 15 15 15 15 15 15 15 14 14 14 14 14 14 14 14 15 15 15 15 15 14 14 15 14 14 14 14 14
10 10 10 10 11 11 12 12 13 14 13 13 14 14 15 15 14 14 14 15 14 14 14 13 13 13 14 14 14 14 14 15 15 15 15 15 15 15 15 15 14 15 14 14
11 11 10 10 11 11 12 12 12 13 12 12 12 12 14 13 13 13 13 13 14 14 14 14 13 13 13 13 13 14 15 15 15 15 14 14 14 14 15 16 16 15 15 15
11 11 11 11 12 12 11 12 12 12 11 12 12 11 12 12 12 12 13 13 13 13 13 13 12 12 12 12 13 14 14 14 14 14 14 14 14 14 15 15 15 16 15 15
11 11 11 11 12 12 11 11 10 9 9 10 11 10 11 12 11 12 12 12 12 12 12 12 11 11 11 12 12 13 14 13 13 14 14 14 13 14 15 15 16 16 16 16
11 11 11 12 12 11 10 9 8 8 8 10 10 10 11 12 12 11 11 11 10 10 10 11 11 11 11 11 12 12 12 13 13 14 13 13 13 14 15 15 15 16 16 15
11 11 11 11 10 10 9 8 7 7 8 9 10 10 10 10 10 10 10 9 8 9 9 9 10 10 11 12 12 12 12 12 12 12 12 12 12 13 13 14 14 14 14 13
10 10 11 10 9 8 8 8 7 7 7 8 9 9 9 8 8 8 8 7 7 8 8 9 10 10 11 11 11 11 10 10 10 11 11 11 12 12 13 13 13 13 12 12
10 10 10 10 9 8 8 7 7 6 6 7 9 9 9 9 8 8 8 7 7 7 8 9 9 9 10 10 9 9 10 10 10 11 11 12 12 12 12 12 12 11 11 11
10 10 11 10 9 8 8 7 7 6 6 6 8 9 9 9 8 8 8 7 7 7 8 8 7 8 8 8 8 9 9 10 10 11 11 11 11 12 12 12 11 11 10 10
10 10 10 10 9 7 7 8 7 7 7 7 7 9 9 8 8 7 6 6 6 6 7 8 7 7 7 7 7 8 8 9 9 9 9 10 10 11 11 11 11 10 9 8
10 9 9 10 9 8 7 8 7 7 7 7 7 9 9 8 7 6 6 6 6 6 7 7 7 7 6 6 7 7 7 7 7 8 8 9 9 10 9 9 9 9 8 9
10 9 9 9 9 8 8 9 8 7 7 8 7 7 8 7 6 6 6 6 6 6 7 7 7 7 7 7 7 7 7 8 8 8 8 8 8 9 8 8 8 8 8 8
11 10 10 10 9 9 9 10 9 8 8 8 8 8 8 7 6 6 6 6 6 7 7 7 6 6 7 7 7 7 8 7 7 7 7 8 8 8 7 7 7 7 8 9
11 11 11 11 11 11 11 11 10 9 9 9 8 8 7 7 6 6 6 6 6 6 6 6 7 7 7 8 8 7 7 7 7 8 8 7 6 7 7 7 7 7 8 8
11 11 12 12 12 13 12 12 12 11 9 8 8 8 7 7 7 6 7 6 6 6 7 6 6 7 7 7 8 7 6 6 7 8 6 5 6 6 6 7 7 8 8 9
13 13 13 13 13 13 13 12 12 11 10 9 8 8 8 7 7 7 7 7 6 7 7 7 7 7 7 7 7 7 7 6 7 7 6 6 6 6 7 8 8 8 8 9
14 14 13 14 14 15 14 13 12 11 10 9 9 8 8 8 8 8 8 8 7 7 8 7 8 7 7 7 8 8 7 7 6 6 6 6 7 7 8 9 9 9 8 9
15 15 14 15 15 15 14 13 11 11 11 10 10 9 9 8 8 8 8 8 8 8 8 8 8 8 8 8 8 8 8 8 7 7 6 7 7 8 9 10 10 9 9 10
16 15 15 15 15 15 13 13 12 12 12 11 11 11 10 10 10 9 9 9 8 8 8 8 8 8 8 8 9 9 9 8 8 7 8 8 9 9 9 10 10 11 11 11
16 16 16 16 16 16 14 14 13 13 13 13 13 12 12 11 11 11 10 10 9 9 9 9 8 8 8 9 9 9 9 8 8 8 8 9 10 10 10 10 11 12 12 13
16 16 17 17 17 16 15 15 14 14 13 13 13 13 12 12 12 12 12 11 10 10 10 9 8 9 9 9 9 9 8 8 8 9 9 10 10 11 11 11 12 13 13 13
17 17 17 17 17 17 16 15 15 14 14 14 14 14 14 14 13 13 12 12 11 10 10 10 9 9 9 9 9 9 8 9 9 10 10 10 11 11 11 12 13 13 13 12
18 18 18 18 18 17 17 17 16 15 15 15 14 14 15 15 14 14 13 12 12 11 11 10 9 9 10 10 9 9 9 9 9 10 10 10 10 10 11 12 12 12 12 11
18 18 18 18 18 18 17 17 17 16 16 16 16 15 15 16 16 15 15 14 13 12 12 11 10 10 11 11 10 10 10 10 10 11 11 10 11 11 12 12 12 12 11 11
Wind_Direction
303 297 290 284 282 281 279 279 279 279 281 278 275 274 273 273 273 272 272 270 270 270 272 275 275 275 275 273 269 267 270 271 272 275 275 274 276 280 282 282 284 286 284 282
308 304 293 287 285 285 286 288 288 288 285 284 281 277 275 273 273 272 272 273 273 272 271 272 273 274 274 270 268 270 271 272 274 275 274 273 274 279 283 283 281 282 284 284
308 304 297 298 297 294 292 292 292 292 290 287 285 281 278 274 273 272 272 272 273 272 271 271 273 274 271 269 268 271 271 273 277 277 276 273 273 278 282 285 286 283 282 284
307 307 303 299 299 300 295 295 294 292 292 290 287 283 282 277 274 272 272 272 272 271 271 273 273 273 272 271 270 271 273 276 280 278 278 277 278 281 283 283 285 286 283 280
310 307 306 303 299 297 296 297 299 296 290 288 287 282 278 277 275 274 273 272 270 270 269 269 269 269 269 269 270 267 269 275 278 278 279 279 280 283 285 283 282 284 283 283
312 308 305 303 301 301 300 303 307 305 301 293 290 285 282 279 281 280 279 277 273 269 268 266 266 267 268 270 270 269 270 273 276 277 281 284 285 285 285 285 285 283 283 283
314 310 307 306 305 303 303 307 315 313 303 295 292 286 285 284 280 281 282 278 275 274 272 270 269 267 267 271 272 271 272 273 275 277 284 286 285 285 286 286 286 284 283 283
314 312 310 312 308 305 303 301 301 299 291 293 295 294 292 289 285 282 280 278 279 281 281 280 278 275 270 272 273 273 274 274 277 280 283 286 288 289 290 292 293 292 286 285
308 308 311 313 311 309 306 300 293 299 299 295 291 293 294 291 288 285 284 284 290 289 288 288 282 274 274 275 276 278 279 281 282 283 285 288 291 294 295 295 294 295 289 286
312 309 314 316 313 315 311 306 299 300 305 307 303 298 297 290 287 284 289 292 293 296 298 300 296 281 282 282 281 278 282 284 283 284 288 291 294 296 295 295 297 294 293 293
310 311 313 314 314 315 316 315 304 294 300 307 309 303 301 297 291 289 288 286 289 298 303 309 308 299 294 288 286 287 286 287 285 288 290 292 294 292 291 295 296 294 293 292
308 312 313 310 307 304 313 319 309 301 300 300 305 304 302 297 290 286 282 282 292 301 305 307 312 312 303 296 295 298 296 296 295 294 293 292 293 295 296 293 292 293 289 287
307 313 316 316 311 300 303 310 308 304 300 298 303 301 301 303 292 284 279 280 293 301 305 306 310 316 318 313 308 307 303 304 303 302 299 297 297 299 298 293 293 292 289 287
301 303 307 309 305 298 302 306 304 305 305 301 298 297 300 300 292 282 281 287 291 294 299 304 306 309 316 316 312 311 312 305 304 308 307 307 307 305 302 299 299 298 298 295
296 295 298 301 301 301 298 302 304 303 303 301 301 296 297 294 290 282 282 286 291 294 298 301 305 312 314 311 310 306 306 305 305 309 311 311 310 314 310 304 302 299 299 301
294 294 296 297 297 299 298 297 297 295 292 297 300 298 294 285 284 284 280 282 292 299 300 302 306 309 313 314 310 307 306 306 303 306 304 308 316 315 314 309 307 307 305 306
287 291 293 294 295 295 293 294 296 293 287 290 295 296 292 280 280 283 284 286 296 301 303 303 304 310 314 315 314 312 314 310 305 308 308 307 312 312 317 321 320 316 309 307
284 286 289 289 291 288 288 291 290 286 282 284 286 288 288 287 284 282 283 287 293 297 298 302 305 305 308 311 313 313 313 313 313 315 311 305 312 319 323 323 320 317 316 313
281 283 284 285 287 288 286 284 282 282 279 279 279 281 283 282 279 278 283 289 292 290 290 295 298 300 303 306 311 312 308 309 314 319 318 314 314 316 319 319 317 318 318 320
279 279 279 280 281 282 284 282 280 279 279 278 276 274 275 277 277 278 283 286 289 290 290 288 292 293 297 301 309 309 303 305 307 312 313 315 316 315 315 315 314 316 317 317
276 276 276 276 276 277 280 279 277 275 275 275 273 273 272 273 275 275 276 276 280 285 285 282 286 290 293 299 306 307 302 303 303 305 309 312 312 312 314 316 316 316 315 314
273 273 273 273 271 272 275 274 273 274 275 273 270 271 271 272 273 273 270 269 270 277 279 278 279 285 291 297 299 303 304 304 304 305 308 311 312 311 313 316 317 315 313 313
273 272 269 270 268 270 271 271 271 271 272 269 266 268 270 271 273 271 267 266 268 274 277 276 276 281 287 293 296 299 300 302 304 305 308 311 311 310 309 311 314 315 314 313
270 268 268 267 267 268 269 271 272 270 273 271 267 267 270 270 270 268 264 264 265 268 271 272 272 279 282 289 296 298 297 304 305 307 307 310 311 310 311 312 314 317 317 314
270 267 267 268 267 267 269 273 274 273 273 274 274 273 272 270 267 265 261 260 262 262 266 268 267 274 281 286 292 295 297 304 306 306 307 310 312 311 312 315 318 320 320 317
267 268 270 270 268 268 270 273 273 272 273 274 273 271 271 270 266 261 259 258 259 258 263 266 266 271 277 282 288 293 296 301 304 305 306 307 309 309 310 314 316 316 317 315
Height
5850 5850 5849 5849 5848 5848 5847 5846 5846 5845 5843 5842 5841 5840 5839 5838 5838 5837 5836 5836 5835 5834 5834 5834 5833 5833 5832 5832 5831 5831 5830 5830 5829 5829 5829 5828 5827 5826 5825 5824 5823 5822 5822 5821
5849 5848 5847 5845 5844 5844 5843 5843 5842 5841 5839 5838 5837 5836 5835 5834 5834 5833 5832 5832 5831 5830 5830 5830 5830 5829 5829 5828 5828 5828 5827 5827 5826 5826 5825 5824 5824 5823 5822 5821 5820 5819 5819 5818
5846 5846 5844 5842 5841 5840 5840 5839 5838 5837 5835 5834 5833 5832 5831 5830 5830 5829 5828 5827 5827 5826 5826 5826 5826 5826 5825 5825 5825 5824 5824 5823 5823 5822 5822 5821 5820 5819 5819 5818 5817 5816 5815 5814
5844 5842 5841 5840 5839 5837 5837 5835 5834 5833 5832 5831 5830 5829 5827 5826 5826 5825 5824 5824 5823 5823 5823 5823 5823 5822 5822 5821 5821 5821 5820 5820 5819 5819 5818 5818 5817 5816 5816 5815 5814 5813 5812 5811
5841 5840 5838 5837 5836 5834 5833 5832 5831 5829 5828 5827 5826 5826 5825 5823 5822 5822 5821 5820 5820 5819 5819 5819 5819 5819 5818 5818 5818 5817 5817 5816 5816 5815 5815 5814 5814 5813 5812 5811 5810 5809 5808 5807
5838 5837 5836 5834 5833 5831 5830 5829 5827 5826 5825 5824 5823 5823 5822 5820 5819 5818 5818 5817 5816 5816 5816 5816 5816 5816 5815 5815 5814 5814 5814 5813 5813 5812 5811 5811 5810 5809 5808 5808 5807 5805 5804 5803
5836 5834 5832 5831 5829 5828 5827 5826 5825 5824 5823 5823 5821 5820 5819 5817 5816 5815 5814 5814 5813 5813 5813 5813 5812 5812 5812 5812 5811 5811 5810 5810 5809 5809 5808 5807 5807 5806 5805 5804 5802 5801 5800 5799
5833 5832 5830 5828 5827 5825 5824 5824 5824 5824 5822 5821 5818 5817 5816 5814 5813 5812 5811 5811 5811 5810 5810 5810 5809 5809 5809 5809 5809 5808 5808 5807 5806 5806 5805 5804 5803 5802 5801 5800 5798 5797 5796 5795
5831 5829 5827 5825 5824 5823 5822 5821 5821 5820 5819 5818 5817 5815 5813 5812 5811 5810 5809 5809 5808 5808 5808 5807 5806 5806 5806 5806 5806 5805 5805 5804 5804 5803 5802 5801 5800 5799 5798 5796 5795 5793 5792 5791
5827 5826 5825 5823 5821 5821 5820 5819 5818 5818 5817 5817 5815 5813 5813 5811 5809 5809 5808 5807 5807 5806 5806 5805 5804 5804 5803 5803 5803 5803 5802 5802 5801 5800 5799 5798 5797 5796 5794 5793 5792 5790 5789 5788
5825 5824 5823 5821 5819 5819 5818 5817 5816 5815 5815 5815 5814 5814 5811 5809 5808 5807 5806 5805 5805 5805 5804 5803 5802 5802 5801 5801 5800 5800 5799 5799 5798 5797 5796 5795 5794 5792 5791 5789 5788 5787 5786 5785
5823 5822 5820 5819 5818 5816 5816 5814 5814 5814 5813 5812 5812 5813 5808 5807 5806 5805 5804 5804 5804 5803 5803 5802 5801 5800 5799 5799 5798 5798 5797 5797 5796 5795 5793 5792 5791 5789 5788 5786 5785 5784 5783 5782
5820 5819 5819 5817 5817 5815 5814 5812 5812 5811 5811 5810 5809 5811 5806 5805 5804 5804 5803 5803 5802 5802 5801 5800 5800 5799 5799 5798 5797 5796 5796 5795 5794 5792 5791 5789 5788 5786 5785 5784 5782 5781 5780 5779
5818 5817 5817 5817 5814 5812 5812 5811 5809 5809 5808 5808 5807 5806 5805 5804 5803 5802 5802 5801 5801 5801 5800 5799 5799 5798 5798 5797 5796 5795 5794 5793 5791 5790 5788 5787 5785 5784 5782 5781 5780 5779 5777 5776
5816 5815 5814 5813 5811 5811 5810 5809 5808 5807 5806 5806 5805 5804 5802 5801 5801 5800 5800 5800 5800 5799 5798 5798 5797 5797 5796 5795 5794 5793 5792 5790 5789 5788 5786 5785 5783 5782 5780 5779 5778 5776 5775 5774
5813 5812 5811 5810 5809 5808 5807 5806 5805 5805 5804 5803 5802 5801 5800 5799 5799 5799 5798 5798 5798 5797 5797 5796 5796 5795 5794 5793 5792 5791 5789 5788 5787 5786 5784 5783 5781 5780 5779 5777 5776 5775 5773 5772
5810 5809 5808 5808 5806 5805 5804 5804 5803 5802 5801 5801 5800 5800 5798 5798 5797 5797 5797 5797 5796 5796 5795 5794 5794 5793 5792 5791 5790 5789 5788 5786 5785 5783 5782 5781 5780 5778 5777 5775 5774 5773 5771 5770
5807 5806 5805 5804 5804 5802 5804 5801 5800 5799 5798 5798 5797 5797 5796 5796 5796 5795 5795 5795 5794 5794 5793 5793 5792 5791 5790 5790 5788 5787 5786 5785 5783 5782 5780 5779 5778 5777 5775 5774 5772 5771 5769 5767
5803 5802 5801 5801 5800 5799 5799 5797 5797 5796 5796 5795 5795 5795 5794 5794 5794 5793 5793 5793 5792 5792 5791 5791 5790 5790 5789 5788 5787 5786 5784 5783 5782 5780 5779 5778 5776 5775 5773 5772 5770 5768 5767 5765
5799 5798 5798 5797 5796 5796 5796 5795 5794 5794 5793 5793 5792 5792 5792 5792 5792 5792 5791 5790 5790 5789 5789 5789 5788 5788 5787 5786 5785 5784 5783 5782 5780 5779 5777 5776 5774 5773 5771 5769 5768 5766 5764 5762
5794 5793 5793 5792 5791 5791 5792 5791 5791 5792 5791 5790 5789 5789 5789 5789 5789 5789 5788 5788 5788 5787 5787 5787 5786 5785 5785 5784 5783 5782 5781 5780 5778 5777 5775 5774 5772 5770 5769 5767 5765 5763 5761 5759
5789 5789 5788 5788 5787 5789 5787 5787 5788 5788 5786 5786 5786 5786 5786 5786 5786 5785 5785 5785 5785 5785 5784 5784 5784 5783 5783 5782 5781 5780 5779 5777 5776 5775 5773 5772 5770 5768 5766 5764 5762 5760 5758 5756
5784 5784 5783 5784 5785 5783 5782 5782 5782 5782 5782 5782 5782 5782 5782 5782 5782 5782 5782 5782 5782 5782 5782 5781 5781 5781 5780 5779 5778 5778 5776 5775 5773 5772 5771 5769 5767 5765 5763 5761 5759 5757 5755 5753
5778 5778 5778 5778 5778 5778 5777 5777 5777 5777 5777 5777 5777 5778 5778 5778 5778 5778 5778 5778 5778 5778 5778 5778 5778 5778 5777 5777 5776 5775 5774 5772 5771 5769 5768 5766 5764 5762 5760 5758 5756 5754 5751 5749
5773 5772 5772 5772 5773 5772 5772 5772 5773 5773 5773 5773 5773 5773 5773 5773 5773 5773 5774 5774 5774 5775 5775 5775 5775 5774 5774 5774 5773 5772 5771 5770 5768 5767 5765 5763 5761 5760 5758 5756 5753 5751 5749 5746
5766 5767 5767 5767 5767 5768 5768 5767 5767 5767 5767 5767 5768 5768 5768 5768 5768 5768 5769 5769 5770 5770 5771 5771 5771 5771 5771 5770 5770 5769 5768 5767 5765 5764 5762 5760 5759 5757 5755 5753 5750 5748 5746 5744